Presure
109 123 113 107 126 133 103 120 156 119 153 135 132 119 109 112 106 125 109 124 154 176 107 158 236 226 136 131 219 132 164 110 185 121 96 151 148 145 157 136 151 130 150
144 125 121 110 114 112 117 105 152 116 152 151 105 124 156 106 165 159 104 126 171 105 103 110 253 148 117 123 238 154 178 215 137 121 166 95 143 150 145 149 132 120 130
126 124 108 157 150 149 149 140 145 112 142 137 115 159 140 151 158 169 185 158 184 142 99 121 103 109 111 129 174 214 169 128 152 170 128 202 161 164 101 136 144 148 135
140 138 152 134 148 107 152 119 123 142 143 148 159 149 124 147 161 152 149 162 197 111 205 254 103 178 150 105 135 229 173 203 157 171 139 189 127 174 140 162 103 150 146
132 130 108 116 124 133 140 115 137 124 141 119 139 178 155 145 159 154 165 163 122 225 154 235 118 100 153 147 114 233 241 117 198 187 173 99 137 91 152 152 156 155 157
140 136 138 141 137 120 102 116 143 155 141 105 149 123 141 148 142 129 187 217 104 222 169 270 228 124 103 106 131 115 216 217 185 206 199 160 98 145 133 146 147 149 148
133 117 124 116 118 108 130 127 124 133 139 118 145 182 144 144 147 166 161 208 193 264 259 235 119 199 148 108 111 127 186 206 201 197 211 208 186 172 178 148 106 134 157
130 110 123 135 117 128 98 124 134 127 133 144 132 126 155 167 145 156 159 196 114 177 253 135 224 211 197 206 151 118 197 204 200 198 208 217 180 180 185 140 155 154 155
99 142 133 112 154 141 125 144 157 151 146 162 125 133 98 124 145 111 201 188 225 143 216 218 221 197 138 203 190 200 195 194 201 193 198 201 202 190 176 181 152 154 185
122 114 126 96 139 117 131 106 151 150 126 153 167 147 141 169 165 189 185 214 217 269 224 198 202 191 194 184 182 196 183 185 192 198 192 182 183 172 194 155 176 162 149
165 146 139 129 129 137 130 170 152 139 166 142 147 150 168 179 172 186 129 208 234 262 219 203 183 191 189 177 196 186 186 192 196 185 194 174 157 148 155 182 184 171 95
103 122 150 135 95 151 172 167 167 130 159 100 147 163 180 130 182 176 185 157 215 247 214 142 198 172 186 180 184 188 188 173 174 191 184 193 167 161 155 165 152 187 188
169 173 162 163 172 140 126 123 163 161 174 164 161 169 130 142 187 168 175 214 204 228 211 206 196 181 183 180 185 173 188 172 191 186 185 180 174 176 169 157 157 158 162
167 174 178 168 139 165 168 127 161 163 162 162 161 164 166 168 191 178 180 196 211 239 210 184 180 182 183 176 176 194 180 167 194 183 179 180 182 178 178 178 174 172 167
157 169 167 169 166 159 161 154 150 139 169 166 165 171 172 165 171 174 206 193 143 238 204 198 180 182 169 172 163 203 167 175 172 154 167 178 178 180 174 174 169 176 173
154 162 160 161 153 168 163 158 132 153 176 158 164 167 171 164 170 163 204 205 193 219 197 193 182 178 183 181 168 162 170 168 161 143 149 164 166 165 168 174 172 173 174
161 157 153 173 167 166 165 161 158 161 160 166 162 166 163 174 183 195 199 177 184 212 201 191 179 181 170 174 170 171 159 186 152 156 173 162 153 153 162 174 170 171 177
160 161 159 161 160 158 158 157 161 162 163 165 160 163 181 189 189 201 207 183 175 218 195 191 183 172 177 177 157 174 163 171 171 156 173 163 163 162 159 172 186 158 171
208 205 184 171 164 164 163 158 159 164 162 164 169 177 178 189 193 191 190 176 168 252 192 186 185 169 171 167 179 158 174 160 179 163 163 171 145 159 160 170 179 155 170
186 179 214 199 200 207 219 206 171 171 172 163 184 173 173 186 189 191 182 189 175 184 190 183 184 175 170 169 158 169 177 159 168 177 169 172 158 135 158 172 165 164 163
181 141 217 170 203 190 202 210 209 223 145 200 140 190 185 193 189 189 182 191 183 181 177 175 181 178 172 169 169 159 162 163 158 161 175 172 163 158 162 163 162 170 165
169 183 163 194 206 217 189 181 181 193 200 220 210 195 155 191 189 194 187 182 177 173 215 173 181 178 169 176 169 186 155 151 157 151 162 163 156 169 152 164 164 149 159
177 171 186 168 162 187 183 173 185 193 187 166 183 193 199 213 203 200 194 186 170 172 182 209 174 167 179 189 172 162 167 158 146 163 160 167 146 170 166 163 160 181 170
202 165 182 209 154 180 187 193 169 195 190 186 151 183 184 222 215 203 200 188 189 187 210 218 199 163 176 178 185 175 169 163 163 155 149 155 160 172 163 163 167 168 154
214 196 171 180 206 183 164 178 174 189 199 187 188 175 155 177 211 205 200 196 183 187 190 170 197 180 165 179 176 154 159 165 166 156 159 155 173 161 155 169 144 143 143
221 202 171 174 179 188 194 180 197 180 193 158 185 182 170 165 170 186 205 202 201 201 179 194 190 197 161 178 167 167 163 165 154 174 158 143 151 160 173 175 163 171 162
Wind_Speed
40 40 41 37 40 40 35 37 49 37 43 38 36 39 31 30 25 38 25 32 40 45 28 36 47 41 33 34 39 35 47 31 47 32 33 56 56 53 64 40 55 38 55
49 41 43 39 37 37 38 39 49 39 47 45 36 39 47 31 53 45 27 36 44 30 30 31 45 38 31 34 41 42 50 52 45 33 67 31 47 59 53 59 46 43 48
49 46 44 53 51 52 50 45 50 40 43 42 41 52 41 45 49 50 51 40 51 40 33 36 32 30 32 35 36 38 46 39 53 58 44 66 66 67 36 42 52 59 44
57 56 60 47 53 42 54 44 44 47 46 48 53 48 44 46 54 47 44 45 46 35 41 35 35 30 36 31 38 28 47 55 49 57 42 65 48 70 58 65 43 60 63
50 46 51 47 50 53 54 44 48 48 46 43 42 51 53 47 56 51 55 43 39 45 38 31 37 39 32 34 38 29 32 30 57 56 60 40 46 36 60 63 64 65 69
63 56 57 57 53 49 45 47 55 60 51 45 55 48 49 53 47 49 48 56 38 43 39 26 28 44 40 36 45 40 38 47 55 60 62 60 42 56 47 58 59 61 61
59 52 52 53 53 49 53 49 47 48 51 50 47 47 57 52 53 58 58 54 45 37 27 28 45 34 41 41 40 44 35 42 52 53 48 58 57 59 59 62 47 58 71
60 55 56 62 55 57 48 50 55 50 52 50 51 51 61 58 56 55 52 46 48 37 27 42 38 35 31 42 39 39 42 39 49 47 39 42 52 54 53 60 64 65 70
51 68 63 56 66 62 56 66 67 67 65 58 53 54 44 53 60 56 52 47 39 50 31 30 40 36 43 43 43 44 41 41 37 44 34 25 22 39 48 58 70 65 65
67 59 57 50 68 57 59 52 69 68 58 69 61 67 60 53 49 47 53 38 35 26 36 34 39 37 37 47 49 47 47 48 46 34 36 37 26 23 30 69 60 72 74
82 75 75 67 63 70 63 70 68 66 65 70 66 60 55 57 51 45 48 38 34 31 43 39 39 41 45 54 46 43 41 42 40 45 41 58 65 73 57 43 50 62 38
60 63 71 70 61 78 74 71 68 68 70 64 63 63 59 59 57 40 46 43 32 39 46 56 46 45 50 56 52 41 41 42 43 42 45 58 67 71 72 65 70 56 60
82 85 80 79 79 81 66 67 70 71 69 65 66 63 60 58 60 40 45 36 35 40 49 48 47 49 53 57 52 51 44 45 39 41 45 51 61 67 70 73 73 71 70
89 92 91 84 76 80 77 72 71 71 70 69 67 63 60 50 60 58 49 40 33 45 52 43 49 52 55 61 55 48 51 52 39 42 44 46 49 57 61 63 68 70 67
91 94 92 92 88 83 81 78 76 77 77 73 71 71 67 53 55 55 48 43 65 46 53 52 53 55 60 63 54 51 49 49 45 42 45 44 46 48 53 55 55 59 63
98 99 92 93 88 95 93 86 84 83 83 74 74 73 72 55 57 48 48 45 35 41 56 56 56 61 65 63 62 50 54 55 47 50 46 50 48 47 47 47 52 55 57
107 104 95 103 101 100 98 92 87 85 81 82 78 77 70 67 72 65 51 47 40 44 57 57 61 64 65 68 64 61 50 53 46 47 49 52 58 56 49 45 53 54 51
108 113 108 105 100 100 99 93 98 93 91 88 78 75 86 74 66 60 50 44 43 43 63 60 64 63 66 69 55 68 61 61 56 48 52 51 53 51 54 45 44 56 47
90 92 113 121 110 109 107 100 101 102 97 95 97 93 78 83 71 65 51 46 45 44 65 67 67 65 67 68 70 58 71 60 66 60 55 55 54 51 48 44 46 63 48
95 106 84 98 96 91 85 93 113 110 110 95 98 99 97 82 72 65 56 50 46 43 68 67 72 75 72 75 65 73 73 59 64 64 64 60 57 57 52 49 49 52 54
98 85 85 95 94 100 88 81 79 76 73 87 63 86 85 76 73 68 60 55 51 45 63 67 76 80 75 78 80 65 64 68 60 60 65 65 62 57 54 52 53 54 56
109 105 111 91 85 90 96 93 93 85 79 74 81 82 72 79 74 71 64 58 56 56 58 77 80 84 78 82 82 80 58 54 61 62 66 65 62 67 56 61 57 64 61
111 111 104 111 97 92 96 101 88 81 85 87 84 81 70 79 79 75 67 61 64 62 62 72 86 79 89 87 84 75 77 67 60 73 70 77 57 71 66 64 54 58 55
107 112 100 91 85 103 91 89 82 81 83 86 61 78 72 68 67 69 67 66 65 61 69 69 87 80 93 93 90 84 85 83 78 72 67 66 68 76 73 71 71 66 60
115 112 122 96 94 102 98 98 85 87 81 88 87 86 64 72 64 67 67 70 66 68 70 76 86 98 84 99 96 66 73 82 85 74 83 74 85 75 67 78 69 69 68
118 111 124 116 113 98 101 108 91 96 84 80 88 85 79 72 66 69 69 70 69 69 73 82 77 90 81 106 91 87 77 78 68 86 74 72 74 73 82 81 74 75 72
Wind_Direction
245 252 247 248 248 259 251 250 284 251 280 261 249 253 257 258 247 260 247 256 281 286 255 273 279 267 250 246 250 260 230 237 228 235 244 241 247 252 238 252 244 248 243
261 255 249 249 251 254 256 251 277 252 281 281 256 255 279 254 290 289 243 259 288 254 255 260 285 256 264 257 237 238 230 211 258 234 227 248 250 246 250 249 251 242 248
253 250 250 268 273 272 267 268 273 255 267 264 257 282 269 284 287 291 292 280 289 265 255 261 256 253 258 253 243 235 239 262 236 224 242 215 236 235 244 244 250 250 251
264 262 265 261 266 251 269 253 259 270 273 277 280 278 261 282 287 277 282 286 295 252 280 274 253 250 250 251 250 239 233 222 242 227 234 221 244 230 243 238 246 243 244
254 254 251 255 258 261 265 254 265 261 272 261 269 284 284 279 284 287 288 290 257 290 266 263 250 252 244 250 257 221 218 242 225 228 225 250 258 250 245 241 242 236 240
259 259 260 260 260 253 255 255 271 272 274 258 280 259 276 281 273 263 296 307 247 291 264 242 233 254 255 254 254 261 219 221 227 223 225 233 249 245 238 247 248 247 248
257 247 253 250 251 254 261 264 261 268 273 261 267 285 277 277 281 284 284 308 285 290 256 226 257 226 247 259 260 258 226 216 217 222 224 225 228 226 227 242 248 248 241
259 247 249 256 252 260 257 260 269 264 270 272 266 268 279 279 281 282 284 293 257 266 225 251 207 214 230 214 236 258 211 218 218 222 223 218 228 229 229 244 234 234 238
257 256 259 253 269 265 258 268 268 269 272 276 259 267 260 261 280 263 312 289 297 262 232 220 207 233 254 214 235 211 212 211 212 217 216 201 201 223 232 232 229 236 236
253 251 255 255 267 255 265 258 267 269 260 270 273 274 274 283 280 305 302 293 290 231 216 239 221 235 226 235 237 217 227 216 214 201 202 172 90 228 231 231 233 232 237
263 264 266 264 262 267 262 268 265 268 273 269 272 275 280 293 290 299 275 290 289 224 215 231 239 224 225 239 229 235 222 214 205 210 193 185 220 232 227 206 209 229 250
256 255 260 260 257 263 272 269 272 264 266 258 275 271 291 275 295 288 304 276 283 211 213 269 221 244 224 234 229 219 215 225 226 205 206 189 208 219 232 226 243 219 221
266 270 264 272 273 264 257 259 274 272 281 273 273 283 261 274 293 279 290 285 274 220 219 221 216 228 228 239 231 238 216 229 210 214 207 212 210 214 220 232 238 240 240
266 268 269 267 262 267 269 257 270 274 272 272 273 276 276 278 286 293 291 282 269 218 218 230 226 228 230 237 241 225 223 237 209 209 211 211 219 223 225 227 231 235 240
262 267 269 269 268 263 264 258 258 262 274 273 274 279 277 269 281 284 279 279 267 219 219 217 226 226 237 237 255 226 238 228 226 235 219 216 216 221 227 233 237 237 238
265 268 264 267 263 267 269 264 260 268 272 263 270 273 275 271 276 271 276 276 264 233 223 224 222 225 231 231 243 252 236 236 242 228 228 219 224 226 229 232 235 237 238
261 261 262 262 264 267 266 265 264 267 266 270 269 272 271 274 278 282 275 267 257 230 221 226 224 224 236 234 236 239 251 225 240 240 229 221 220 225 227 234 233 235 239
258 260 263 262 261 263 265 267 268 269 270 271 269 270 275 274 273 273 263 262 254 233 221 225 219 228 229 232 249 236 247 239 238 239 236 227 228 232 234 242 246 229 237
252 251 253 256 262 259 260 263 265 266 270 271 272 271 268 272 270 272 264 255 247 228 224 227 220 232 227 236 233 248 236 247 238 238 239 236 232 233 237 240 248 231 243
247 251 255 249 252 254 251 251 258 260 262 263 262 265 267 267 264 263 260 251 237 241 225 230 223 226 227 230 244 237 230 245 242 239 238 238 241 236 238 246 235 238 239
245 263 255 256 250 252 251 250 250 250 262 252 258 255 256 259 259 256 253 247 242 240 232 237 228 227 232 232 233 245 240 243 250 250 242 240 246 248 246 243 233 242 238
249 245 253 251 249 252 249 248 250 249 246 249 250 251 255 253 254 253 248 245 237 232 227 234 227 230 238 229 234 226 244 246 250 253 251 251 251 248 244 252 249 238 240
252 248 242 252 257 245 244 249 244 245 246 254 247 252 251 248 249 249 247 240 236 230 232 220 230 239 231 230 230 238 235 240 245 248 248 249 243 251 250 253 248 252 251
252 255 246 245 259 250 245 245 250 242 242 244 246 245 248 244 243 246 245 240 241 240 229 222 221 241 234 234 228 231 234 239 242 245 249 251 253 249 250 254 252 254 243
249 251 251 246 244 241 259 244 248 240 239 240 243 248 254 248 241 241 242 242 236 238 227 229 220 228 241 234 236 243 242 243 238 243 248 250 249 247 248 251 241 242 244
245 248 251 253 243 241 239 246 238 243 236 254 239 240 248 252 242 241 238 239 239 235 229 226 228 220 242 231 241 242 245 244 238 245 243 249 251 249 249 249 249 249 250